CYGFM08

Last updated on Wed Sep 09 2026 00:02:41 GMT+0000 (Coordinated Universal Time)

1 41888U 16078E 26251.45825764 .00036456 00000+0 36527-3 0 9997 2 41888 34.9427 45.1338 0006032 265.8733 94.1304 15.64437566542008
UTC large
Height (km)
Speed (km/s)
/
Latitude / Longitude
Inclination (degrees)
Orbital Period (minutes)
Azimuth
Elevation
Range (km)
Doppler Factor

Next 0 passes for location: London (51.5072 / 0.1276)

No passes found over London.
CYGFM08